"Pseudo-MPEC" for P10OT5m

Created 2019 Jun 15 19:08:51 UT using Find_Orb

Click here for an explanation of pseudo-MPECs

 
 Astrometry: 
     P10OT5m  C2019 05 12_2.DO%8j?Astrometry/:sVJ[P$Z:;7*X+\@wvGA,lP*u/wfN,G*F51
     P10OT5m  C2019 05 12\G/p;$aE]l(#jX$Jyd=)o88F$@,_BICXJROe161n)mKM%PwX::cSF51
     P10OT5m  C2019 05 12T/1OJq?n)i2T1#eY`2_375dpO%2m2@wIHt]p$LJj[6mI-3.@$C+NF51
     P10OT5m  C2019 05 27Md:tv5vM^oOY,y73J'n:Onc\[L#`obhv)pVG)Y5XL5\T)v)R:?gfF52
     P10OT5m  C2019 05 27B'5^pfdy\tq]$sy7cI5k,CO\[PFHBP,[FrEy.@plxCE5,!^BmD?vF52
     P10OT5m  C2019 05 27'FW1l%(h/4Iredacted;U`o.Hi$nAnV.on*9J8tpI+Og*^!Tn;#VF52
     P10OT5m  C2019 05 30dlclick[2g]CEvkPl*_hereXp.27+pvaJDM@s5S`LY]r/OV3;lL#F52
     P10OT5m  C2019 05 30d8;o.kVY53`iSZY,t+@XW)a3_N5TtaX^SsTbd0uSC[vQoU7j;WL;F52
     P10OT5m  C2019 05 30=`kOU@kg$D`X`$C[1@qaqf=c02tf85]x6)(EIs2M=L`$*)9o#0VuF52
     P10OT5m  C2019 05 30QM^;9X\RH?*^H2]K+Iy#u_[YBtNE+^t6f2Q%E3WmS+UNh'4kZ7@sF52
     P10OT5m  C2019 06 01ry;l':Q?5g+Gs1l,B99^Do3fP!W08w]dPxVW8bQ')\Omu/jiN3q;F51
     P10OT5m  C2019 06 01T!1eTcHr9)K9kV@t8IQ`y`Phb$U4tci6OUE8W=+XF0KkfE@YIq?HF51
     P10OT5m  C2019 06 011ojsMyaGcQ8l`7*=TiOUTF@@yI7rKHA;von]p1hb#(ya.QOc_*c%F51
     P10OT5m  C2019 06 07**YSuQ$Dss@BgWlSUV(Tr(#2%bCA'S,1Y*@UKRGX,Vi4eaq'd]aLF52
     P10OT5m  C2019 06 07S*mS1H`gTKhg/bB4nCm\ieC`F-w-3P7](wD6H2#WtykCC8Cwt2qLF52
     P10OT5m  C2019 06 09bXIpkSaL6T3bk5tHlHH8kEPiB%!^vNUQJFfor+2LuP[/lxfNkhv]F51
     P10OT5m  C2019 06 094ugW=lXUi`0DlZDwlKLv,5h24.`YQ7?2)v*P.9?II=;*;lPf'rToF51
     P10OT5m  C2019 06 09^BXE!c6q(TX,*f#iI@*S\P^explanationoeO#43yl2/qk%%Ie0jF51
     P10OT5m KC2019 06 10e335.BjnF=kut/sLuM6xx'#$+B4O.Gbw/Z?S)Euu%^HR4vB2tIixH21
     P10OT5m KC2019 06 10T12]s4FpwZjQcjQdi9o?a!S]C?2l.0!sw8Ge8=bsa9\+DuK9jj!EH21

Station data:
(F51) Pan-STARRS 1, Haleakala  (N20.707235 W156.255910)  US/Hawaii.
   Observers N. Primak, A. Schultz, S. Watters, J. Thiel, T. Goggia. Measurer
   PS1 Science Consortium. 1.8-m Ritchey-Chrétien + CCD.
(F52) Pan-STARRS 2, Haleakala  (N20.707384 W156.255910)  US/Hawaii. 1.8-m
   Ritchey-Chrétien + CCD.
(H21) Astronomical Research Observatory, Westfield  (N39.483057 W87.968270)
   US/Illinois. 0.76-m f/3.0 astrograph + CCD.

Orbital elements:  P10OT5m
   Perihelion 2019 Dec 31.496998 +/- 0.0367 TT = 11:55:40 (JD 2458848.996998)
Epoch 2019 Jun 10.0 TT = JDT 2458644.5   Earth MOID: 0.6599   AutoNEOCP
M 276.14909819 +/- 0.029            (J2000 ecliptic)
n   0.41003487 +/- 7.7e-5           Peri.  250.99002 +/- 0.007
a   1.79441207 +/- 0.000225         Node   100.72701 +/- 0.0055
e   0.1151862 +/- 0.000161          Incl.   23.94298 +/- 0.006
P   2.40/877.96d           H 21.0   G  0.15   U  6.4  
q 1.58772044 +/- 0.000111    Q 2.00110370 +/- 0.000535
From 20 observations 2019 May 12-June 10; mean residual 0".19
Residuals in arcseconds: 
190512 F51  .21-  .16+    190530 F52  .31-  .28-    190607 F52  .13-  .07+    
190512 F51  .15-  .19-    190530 F52  .03+  .49+    190609 F51  .03-  .14-    
190512 F51  .32+  .09+    190530 F52  .15+  .15-    190609 F51  .22+  .18-    
190527 F52  .21+  .23-    190601 F51  .00   .07+    190609 F51  .07+  .05-    
190527 F52  .06-  .38-    190601 F51  .01-  .21+    190610 H21  .08-  .07-    
190527 F52  .03+  .33+    190601 F51  .01+  .08-    190610 H21  .12+  .27+    
190530 F52  .10+  .00     190607 F52  .22-  .02+    

Ephemerides (geocentric):
Date (UTC) HH   RA              Dec         delta   r     elong  mag " sig PA
---- -- -- --  -------------   -----------  ------ ------ -----  --- ---- ---
2019 06 15 19  16 52 07.081   -01 19 31.92  .81199 1.7875 155.7 22.6 .393 116
2019 06 15 20  16 52 03.221   -01 20 19.83  .81197 1.7874 155.7 22.6 .396 116
2019 06 15 21  16 51 59.362   -01 21 07.78  .81195 1.7873 155.7 22.6 .399 116
2019 06 15 22  16 51 55.504   -01 21 55.77  .81193 1.7873 155.7 22.6 .401 116
2019 06 15 23  16 51 51.647   -01 22 43.80  .81192 1.7872 155.7 22.6 .404 116
2019 06 16 00  16 51 47.791   -01 23 31.87  .81190 1.7872 155.7 22.6 .407 116
2019 06 16 01  16 51 43.936   -01 24 19.98  .81188 1.7871 155.7 22.6 .410 116
2019 06 16 02  16 51 40.082   -01 25 08.13  .81186 1.7870 155.6 22.6 .413 116
2019 06 16 03  16 51 36.228   -01 25 56.32  .81184 1.7870 155.6 22.6 .416 116
2019 06 16 04  16 51 32.376   -01 26 44.55  .81183 1.7869 155.6 22.6 .419 115
2019 06 16 05  16 51 28.525   -01 27 32.82  .81181 1.7868 155.6 22.6 .422 115
2019 06 16 06  16 51 24.675   -01 28 21.13  .81179 1.7868 155.6 22.6 .425 115
2019 06 16 07  16 51 20.826   -01 29 09.48  .81178 1.7867 155.6 22.6 .428 115
2019 06 16 08  16 51 16.978   -01 29 57.87  .81176 1.7867 155.6 22.6 .431 115
2019 06 16 09  16 51 13.131   -01 30 46.30  .81175 1.7866 155.5 22.6 .434 115
2019 06 16 10  16 51 09.285   -01 31 34.77  .81173 1.7865 155.5 22.6 .437 115
2019 06 16 11  16 51 05.440   -01 32 23.27  .81172 1.7865 155.5 22.6 .440 115
2019 06 16 12  16 51 01.597   -01 33 11.82  .81170 1.7864 155.5 22.6 .443 115
2019 06 16 13  16 50 57.754   -01 34 00.41  .81169 1.7864 155.5 22.6 .446 114
2019 06 16 14  16 50 53.912   -01 34 49.03  .81168 1.7863 155.5 22.6 .449 114
2019 06 16 15  16 50 50.072   -01 35 37.70  .81167 1.7862 155.4 22.6 .452 114
2019 06 16 16  16 50 46.233   -01 36 26.40  .81165 1.7862 155.4 22.6 .455 114
2019 06 16 17  16 50 42.394   -01 37 15.15  .81164 1.7861 155.4 22.6 .458 114
2019 06 16 18  16 50 38.557   -01 38 03.93  .81163 1.7860 155.4 22.6 .462 114
2019 06 16 19  16 50 34.721   -01 38 52.75  .81162 1.7860 155.4 22.6 .465 114
2019 06 16 20  16 50 30.887   -01 39 41.61  .81161 1.7859 155.4 22.6 .468 114
2019 06 16 21  16 50 27.053   -01 40 30.51  .81160 1.7859 155.3 22.6 .471 114
2019 06 16 22  16 50 23.221   -01 41 19.45  .81159 1.7858 155.3 22.6 .474 113
2019 06 16 23  16 50 19.389   -01 42 08.42  .81158 1.7857 155.3 22.6 .477 113
2019 06 17 00  16 50 15.559   -01 42 57.44  .81157 1.7857 155.3 22.6 .480 113
2019 06 17 01  16 50 11.730   -01 43 46.49  .81156 1.7856 155.3 22.6 .484 113
2019 06 17 02  16 50 07.903   -01 44 35.58  .81155 1.7855 155.3 22.6 .487 113
2019 06 17 03  16 50 04.076   -01 45 24.71  .81155 1.7855 155.2 22.6 .490 113
2019 06 17 04  16 50 00.251   -01 46 13.88  .81154 1.7854 155.2 22.6 .493 113
2019 06 17 05  16 49 56.427   -01 47 03.08  .81153 1.7854 155.2 22.6 .497 113
2019 06 17 06  16 49 52.605   -01 47 52.33  .81153 1.7853 155.2 22.6 .500 113
2019 06 17 07  16 49 48.783   -01 48 41.61  .81152 1.7852 155.2 22.6 .503 113
2019 06 17 08  16 49 44.963   -01 49 30.93  .81151 1.7852 155.2 22.6 .506 112
2019 06 17 09  16 49 41.144   -01 50 20.29  .81151 1.7851 155.1 22.6 .510 112
2019 06 17 10  16 49 37.327   -01 51 09.69  .81150 1.7851 155.1 22.6 .513 112
2019 06 17 11  16 49 33.510   -01 51 59.12  .81150 1.7850 155.1 22.6 .516 112
2019 06 17 12  16 49 29.695   -01 52 48.59  .81149 1.7849 155.1 22.6 .520 112
2019 06 17 13  16 49 25.882   -01 53 38.10  .81149 1.7849 155.1 22.6 .523 112
2019 06 17 14  16 49 22.069   -01 54 27.65  .81149 1.7848 155.0 22.6 .526 112
2019 06 17 15  16 49 18.258   -01 55 17.23  .81148 1.7847 155.0 22.6 .530 112
2019 06 17 16  16 49 14.449   -01 56 06.85  .81148 1.7847 155.0 22.6 .533 112
2019 06 17 17  16 49 10.640   -01 56 56.51  .81148 1.7846 155.0 22.6 .536 112
2019 06 17 18  16 49 06.833   -01 57 46.21  .81148 1.7846 155.0 22.6 .540 111